Regional Weather Roundup
Issued by NWS

Home | Current Version | Previous Version | Graphics & Text | Print | Product List | Glossary On
Versions: 1 2 3 4 5 6 7 8 9 10 11 12 13 14 15 16 17 18 19 20 21 22 23 24 25 26 27 28 29 30 31 32 33 34 35 36 37 38 39 40 41 42 43 44 45 46 47 48 49 50
000
ASUS43 KOAX 230902
RWRNE

WEATHER ROUNDUP FOR NEBRASKA
NATIONAL WEATHER SERVICE OMAHA NE
300 AM CST SUN NOV 23 2014

NOTES: SATELLITE DATA IS BEING USED TO AUGMENT CLOUD COVER ABOVE
       12000 FEET.
       "FAIR" INDICATES FEW OR NO CLOUDS BELOW 12,000 FEET WITH NO
       SIGNIFICANT WEATHER AND/OR OBSTRUCTIONS TO VISIBILITY.

  * THESE STATIONS DO NOT REPORT WEATHER SUCH AS RAIN...SNOW OR FOG.

NEZ001>004-019>022-054>056-231000-
NEBRASKA PANHANDLE

CITY           SKY/WX    TMP DP  RH WIND       PRES   REMARKS
SCOTTSBLUFF    CLOUDY    37  27  67 NW14      29.65R WCI  28
ALLIANCE       CLOUDY    39  23  52 NW17      29.61R WCI  30
CHADRON        CLOUDY    37  28  70 W14       29.64R WCI  28
KIMBALL        CLOUDY    36  29  76 N16G22    29.63R WCI  26
SIDNEY         CLOUDY    39  27  62 N20G26    29.63R WCI  29
$$

NEZ057>060-069>072-079>082-231000-
SOUTHWEST NEBRASKA

CITY           SKY/WX    TMP DP  RH WIND       PRES   REMARKS
NORTH PLATTE   MOCLDY    33  25  72 NW8       29.50R WCI  26
IMPERIAL       CLOUDY    49  25  39 NW18G26   29.56R
LEXINGTON      CLOUDY    38  32  79 CALM      29.45S
MCCOOK         CLOUDY    43  32  65 W7        29.46R
$$

NEZ005>010-023>029-035>040-094-231000-
NORTH CENTRAL NEBRASKA

CITY           SKY/WX    TMP DP  RH WIND       PRES   REMARKS
VALENTINE      PTCLDY    40  34  79 NW18G29   29.51R WCI  31
AINSWORTH      PTCLDY    43  34  69 NW20G28   29.48R
BROKEN BOW     MOCLDY    52  32  46 NW15      29.42F
ORD            MOCLDY    36  32  85 CALM      29.42F
$$

NEZ041-046>049-061>064-073>077-083>087-231000-
SOUTH CENTRAL NEBRASKA

CITY           SKY/WX    TMP DP  RH WIND       PRES   REMARKS
AURORA         MOCLDY    52  50  93 S7        29.46F
HASTINGS       CLOUDY    51  47  86 S7        29.45F
HEBRON         CLOUDY    54  49  83 S5        29.48F
HOLDREGE       CLOUDY    44  43  95 CALM      29.45F FOG
KEARNEY *      CLOUDY    45  43  93 SE8       29.46F
YORK           CLOUDY    52  50  93 S8        29.48F
$$

NEZ011>018-030>034-042>045-231000-
NORTHEAST NEBRASKA

CITY           SKY/WX    TMP DP  RH WIND       PRES   REMARKS
NORFOLK        CLOUDY    51  49  92 S12       29.43F FOG
ALBION         FOG       45  43  91 S3        29.44S VSB 1/2
BLAIR          CLOUDY    55  51  89 S13       29.49S
COLUMBUS *     MOCLDY    52  48  87 S9        29.48S
FREMONT        CLOUDY    55  52  89 S7        29.49F
TEKAMAH        CLOUDY    54  50  86 S9        29.49F
WAYNE          CLOUDY    51  49  93 S10       29.44F
$$

NEZ050>053-065>068-078-088>093-231000-
SOUTHEAST NEBRASKA

CITY           SKY/WX    TMP DP  RH WIND       PRES   REMARKS
LINCOLN        CLOUDY    55  50  83 S12       29.51R
OMAHA EPPLEY   CLOUDY    53  52  96 S13       29.51F
BEATRICE       CLOUDY    55  50  83 S8        29.51F
FALLS CITY     CLOUDY    53  52  96 SE8       29.55F FOG
NEBRASKA CITY  CLOUDY    54  51  92 S15       29.53F
$$

NEZ044-045-051>053-067-231000-
OMAHA AREA

CITY           SKY/WX    TMP DP  RH WIND       PRES   REMARKS
OMAHA EPPLEY   CLOUDY    53  52  96 S13       29.51F
BLAIR          CLOUDY    55  51  89 S13       29.49S
FREMONT        CLOUDY    55  52  89 S7        29.49F
MILLARD        CLOUDY    55  52  90 SE9       29.51S
OFFUTT AFB     CLOUDY    54  51  90 S8        29.51F
WAHOO          CLOUDY    55  50  86 S7        29.50R
$$



USA.gov is the U.S. government's official web portal to all federal, state and local government web resources and services.